Regional Weather Roundup
Issued by NWS Upton, NY

Current Version | Previous Version | Graphics & Text | Print | Product List | Glossary Off
Versions: 1 2 3 4 5 6 7 8 9 10 11 12 13 14 15 16 17 18 19 20 21 22 23 24 25 26 27 28 29 30 31 32 33 34 35 36 37 38 39 40 41 42 43 44 45 46 47 48 49 50

000
ASUS41 KOKX 161405
RWROKX

REGIONAL WEATHER ROUNDUP
NATIONAL WEATHER SERVICE NEW YORK NY
1000 AM EDT TUE SEP 16 2014

NOTE: "FAIR" INDICATES FEW OR NO CLOUDS BELOW 12,000 FEET WITH NO
SIGNIFICANT WEATHER AND/OR OBSTRUCTIONS TO VISIBILITY.

NYZ071-072-176-178-NJZ106-104-161500-
NEW YORK CITY METRO AREA


CITY           SKY/WX    TMP DP  RH WIND       PRES   REMARKS
CENTRAL PARK   LGT RAIN  59  56  89 VRB5      30.05F FOG
LAGUARDIA APRT LGT RAIN  58  56  93 NE5       30.02F FOG
KENNEDY INTL   LGT RAIN  61  57  87 N13       30.02S FOG
NEWARK/LIBERTY LGT RAIN  58  57  97 NE9       30.02F
BRNX BOT. GARD   N/A     57  55  94 NE1       30.04S
TETERBORO      LGT RAIN  58  55  90 N6        30.02F FOG
$$

NYZ177-179-078>081-161500-
LONG ISLAND NEW YORK

CITY           SKY/WX    TMP DP  RH WIND       PRES   REMARKS
FARMINGDALE    LGT RAIN  62  58  86 NW5       30.03R
ISLIP          LGT RAIN  63  58  83 N8        30.00F
SHIRLEY        LGT RAIN  65  57  75 W3        30.01F
WESTHAMPTON    PTSUNNY   68  51  54 S6        30.02F
MONTAUK POINT    N/A     67  52  58 CALM      30.03R
$$

NYZ052-065-067-161500-
HUDSON VALLEY

CITY           SKY/WX    TMP DP  RH WIND       PRES   REMARKS
WHITE PLAINS   LGT RAIN  57  54  89 N6        30.03S
NEWBURGH       CLOUDY    55  55 100 CALM      30.04S
MONTGOMERY     CLOUDY    56  53  90 CALM      30.03S
POUGHKEEPSIE   CLOUDY    57  54  89 CALM      30.02S
ALBANY         CLOUDY    56  52  86 CALM      30.03R
$$

NJZ001-105-106-008-010-013-015-019>022-104-161500-
NEW JERSEY

CITY           SKY/WX    TMP DP  RH WIND       PRES   REMARKS
NEWARK/LIBERTY LGT RAIN  58  57  97 NE9       30.02F
TETERBORO      LGT RAIN  58  55  90 N6        30.02F FOG
CALDWELL       HVY RAIN  56  54  93 CALM      30.04R FOG
MORRISTOWN     LGT RAIN  59  57  94 E3        30.04R FOG
SOMERVILLE     CLOUDY    59  56  89 N6        30.01R
LINDEN         DRIZZLE   63  61  94 NE6       30.04S
SUSSEX         CLOUDY    60  56  86 NE3       30.03S
ANDOVER          N/A     58  56  93 CALM      30.03S
TRENTON        CLOUDY    60  57  89 N5        30.01R
MILLVILLE      CLOUDY    68  62  81 W12       30.00R
ATLANTIC CITY  CLOUDY    67  64  90 SW9       29.99S
WRIGHTSTOWN    CLOUDY    63  61  94 NW7       29.98R
TOMS RIVER     CLOUDY    63  61  94 NW6       29.99S
BELMAR         CLOUDY    63  57  82 CALM      29.99S
$$

PAZ047>061-062-071-161500-
EASTERN PENNSYLVANIA

CITY           SKY/WX    TMP DP  RH WIND       PRES   REMARKS
PHILADELPHIA   MOSUNNY   67  59  75 NW10      30.01R
ALLENTOWN      SUNNY     62  55  77 CALM      30.02F
SCRANTON       PTSUNNY   60  50  69 CALM      30.04R
$$

CTZ002-004>006-009-010-012-RIZ004-006-007-MAZ004-011-015-161500-
SOUTHERN NEW ENGLAND
 IN CT

CITY           SKY/WX    TMP DP  RH WIND       PRES   REMARKS
BRADLEY INTL   LGT RAIN  56  51  84 N3        30.02F
HARTFORD       LGT RAIN  54  52  93 SE9       30.03F
DANBURY        LGT RAIN  56  54  93 CALM      30.04F FOG
WTRBRY/OXFORD  LGT RAIN N/A N/A N/A NW5       30.05F FOG
BRIDGEPORT     LGT RAIN  60  56  86 NW9       30.03S
MERIDEN        LGT RAIN  55  52  89 CALM      30.04S
NEW HAVEN      CLOUDY    59  53  80 NE3       30.03R
CHESTER        LGT RAIN  59  55  88 NW3       30.03F
GROTON         CLOUDY    64  54  69 CALM      30.02R
WILLIMANTIC    LGT RAIN  56  50  80 SW3       30.04R

 IN RI

CITY           SKY/WX    TMP DP  RH WIND       PRES   REMARKS
PROVIDENCE     PTSUNNY   65  53  65 S7        30.03F
BLOCK ISLAND   MOSUNNY   66  48  52 E6        30.02R
WESTERLY       PTSUNNY   66  51  58 S7        30.03R

 IN MA

CITY           SKY/WX    TMP DP  RH WIND       PRES   REMARKS
BOSTON         PTSUNNY   59  51  75 S3        30.02S
WORCESTER      CLOUDY    56  50  80 SW5       30.03S
WESTFIELD      LGT RAIN  54  51  90 N3        30.03S
PROVINCETOWN   PTSUNNY   64  54  68 S9        30.03S
NANTUCKET      PTSUNNY   65  53  65 SE10      30.02F
$$

ANZ330-335-338-340-345-350-353-355-161500-
COASTAL MARINE OBSERVATIONS


STATION/POSITION TIME  SKY/WX   TEMP    WIND        PRES    VSBY  WAVE
                                AIR SEA DIR/SP/G                  HT/PER
                 (UTC)          (F)     (DEG/KT/KT) (MB)    (MI)  (FT/S)
NY HARB ENTRANCE NOT AVBL
4S FIRE IS       NOT AVBL
23SW MTP         1400                                 N/A           2/ 7
HUDSON CANYON    1400            69 73  190/  4/  6 1015.9          2/ 7
EXECUTION ROCKS  1400            61 71  350/ 10/ 14   N/A
WESTERN LI SOUND 1400            61     360/ 12/ 14   N/A           0
CENTRAL LI SOUND 1300            66 71  190/  8/ 10   N/A           1
EASTERN LI SOUND 1300            67 68  170/  6/ 10   N/A
ROBBINS REEF     1300            60     360/  4/  5   N/A
$$


>>>>>>>>>>>>>>>>>>>>>>>>>>>> KEY <<<<<<<<<<<<<<<<<<<<<<<<<<<
>                                                          <
>     SKY/WX - SKY CONDITION/PRESENT WEATHER               <
>     TMP    - TEMPERATURE IN FAHRENHEIT                   <
>     DP     - DEWPOINT IN FAHRENHEIT                      <
>     RH     - RELATIVE HUMIDITY IN PERCENT                <
>     WIND   - DIRECTION AND SPEED IN MPH                  <
>     PRES   - MEAN SEA LEVEL PRESSURE IN INCHES OF HG     <
>     WCI    - WIND CHILL INDEX                            <
>     VSB    - VISIBILITY IN MILES                         <
>     HX     - HEAT INDEX                                  <
>     TC     - TEMPERATURE IN CELSIUS                      <
>     VRB    - VARIABLE WIND DIRECTION                     <
>                                                          <
>>>>>>>>>>>>>>>>>>>>>>>>>>>> KEY <<<<<<<<<<<<<<<<<<<<<<<<<<<





USA.gov is the U.S. government's official web portal to all federal, state and local government web resources and services.